Location: Cruquius
(52.3348°N, 4.6319°E)
Time: 14:02:41
(UTC+00:00)

NOSS 3-3 (C) - Pass Details

Date: 02 October 2021
Orbit: 801 x 1411 km, 63.4° (Epoch: 05 October)

Event Time Altitude Azimuth Distance (km) Brightness Sun altitude
Rises 20:18:22 0° 309° (NW) 4,050 8.5 -27.5°
Reaches altitude 10° 20:21:52 10° 293° (WNW) 3,189 7.6 -27.9°
Maximum altitude 20:26:57 19° 252° (WSW) 2,675 6.6 -28.6°
Drops below altitude 10° 20:32:20 10° 211° (SSW) 3,415 6.8 -29.2°
Enters shadow 20:35:24 - 198° (SSW) 4,187 7.1 -29.6°
